Vertical_Velocity
1 2 -0 0 -1 0 -2 -4 1 4 4 2 2 0 1 1 1 -2 -3 -3 -0 0 2 -1 -1 0 -3 -0 -2 -2 -4 -2 -0 -1 0 1 -0 -2 -1 -2 0 1 1 -0 -1 -1 0 0 -1
1 2 1 -0 -3 0 -5 -0 0 4 1 1 -0 3 0 3 2 -1 -5 -1 1 2 3 4 1 3 -1 -2 -1 -0 -2 -2 -1 -0 -1 -1 1 -1 -0 2 1 3 2 -1 -0 0 0 1 0
1 2 5 3 -3 -11 -5 0 0 0 2 1 2 5 1 1 1 1 -4 3 3 5 2 1 2 3 1 -3 -1 -1 -2 -2 -0 1 1 1 1 2 2 2 2 -1 1 2 0 1 1 0 1
0 2 2 -1 -9 1 -4 -2 1 0 2 3 -0 -0 0 2 1 1 1 -0 0 3 2 2 1 4 2 -3 -1 1 1 -0 -3 -2 -2 -0 0 0 -1 0 -0 1 1 -1 -1 -0 0 1 1
1 0 2 -5 -10 -7 0 5 1 3 2 4 -4 -1 3 0 2 2 2 -1 -1 -1 1 0 -0 1 2 -2 -1 -3 -1 -0 -2 -1 -2 -1 -1 1 1 0 0 -0 0 1 1 -0 -0 -0 -1
1 0 -2 -13 -9 1 -1 4 3 3 3 4 -1 -3 2 -3 -2 1 1 1 -2 -1 -0 1 1 0 3 -1 -1 0 0 -1 -0 -3 -1 -2 -2 -2 -1 -0 -1 -0 -0 0 -1 -2 -1 0 2
-1 -2 -8 -7 -3 -1 -1 5 -5 5 0 5 -0 -3 -1 -3 1 -0 0 1 1 -2 -0 -1 2 1 1 -0 -1 -0 -0 -0 -0 -2 -2 -1 -1 -3 -2 -1 -0 -2 -0 -1 -2 -0 0 -0 -1
3 4 -1 -6 -5 -10 4 -2 6 -1 0 1 2 -6 -4 3 3 2 0 0 0 2 -0 2 -1 -0 1 4 2 -1 1 -1 1 -1 -2 -2 -1 0 -2 -3 -3 -3 -3 -2 -1 0 0 0 0
2 0 -8 -8 0 -3 1 0 -2 -3 -2 4 -0 -4 -1 -1 -2 -0 2 0 -1 1 3 0 2 3 2 2 2 2 1 1 1 1 -2 -1 -1 -1 0 -0 -0 -3 -2 -2 -0 -1 -1 -2 -2
-2 -3 -10 -5 3 -1 5 1 1 -0 -2 3 -0 -3 -2 -4 0 -1 -1 0 3 2 2 3 1 3 2 2 3 2 2 1 1 2 1 0 0 0 0 0 -0 -1 -1 -1 -2 -1 -0 -0 -1
-1 -6 -0 -4 1 -1 3 2 -4 -2 0 1 3 -3 0 -2 0 2 -2 1 2 -3 -4 1 2 0 -1 3 1 1 3 1 2 1 1 -1 1 2 1 0 -0 0 1 -2 -1 -3 -3 -2 -0
-0 1 0 2 3 -3 4 1 -3 -3 2 2 3 -2 -1 0 1 1 0 5 4 3 -4 -2 1 2 1 1 0 2 1 1 2 2 0 1 2 2 1 1 -0 -1 -0 1 1 0 0 1 -1
-1 0 -3 1 4 -1 -2 -2 -3 -14 5 0 -1 3 -3 -2 1 0 -2 -5 -2 -2 1 1 -1 -2 1 1 -0 1 3 2 3 -0 -0 0 0 0 -1 0 0 -1 2 1 -0 -1 2 1 0
2 1 -2 -3 3 0 0 -2 3 -7 2 -0 1 2 4 -1 -2 -3 -3 -1 -4 -1 1 -2 -1 1 -2 -1 1 2 1 2 -1 -0 2 0 0 -0 1 2 2 -1 1 0 -2 -3 -0 -2 -3
5 -1 -4 -4 3 -2 -0 -11 -11 8 3 -1 -3 4 3 -2 1 -4 -2 -1 -3 -1 -0 -8 -1 1 1 0 -1 1 0 -2 -0 1 2 2 4 3 -1 0 3 2 1 1 3 1 -2 -1 -1
0 4 -1 0 2 -1 4 -9 2 -1 -5 -4 3 1 2 3 -1 2 0 -4 -1 0 -0 3 2 1 1 -1 2 1 1 2 -0 -2 1 -1 -1 2 3 -0 2 -3 -0 0 -1 -0 -2 -1 -2
4 0 -4 -3 -0 1 2 -6 3 -4 -3 -6 -5 -4 -0 -4 -2 -5 1 1 -0 -2 -1 -1 1 -1 3 2 -0 6 7 3 -1 1 -5 -0 -2 1 -0 1 3 -3 3 4 2 1 1 1 0
-5 -3 -5 -0 -4 2 4 -5 -0 -2 -4 -1 -4 -4 -2 -1 2 5 0 0 4 2 -1 -2 -1 -0 -2 -0 -1 -0 -0 1 -4 5 -4 4 -2 1 2 3 2 -0 3 1 2 1 0 1 1
3 2 -0 0 -0 0 0 -4 -6 -1 -3 0 -3 -3 -2 1 10 3 4 6 4 4 3 4 -5 -7 0 -2 -3 -3 -2 4 3 1 8 4 6 -1 2 4 3 1 0 6 -2 1 1 -2 1
2 -1 -2 -0 -1 0 -1 -3 -21 5 -0 -1 -0 -5 -3 -1 1 1 0 0 -2 5 3 -0 7 6 -3 1 -1 -8 -1 -5 6 3 5 -1 4 4 -2 0 -1 -1 2 0 -1 3 3 1 1
-1 -4 -1 1 -0 -1 -4 -13 -16 4 2 1 -4 -1 2 -5 -1 1 -0 -1 -2 -1 1 -1 -1 1 4 3 5 0 -2 -2 -4 -1 -3 -2 2 4 5 -1 2 0 1 0 5 -1 4 4 4
3 -6 -2 1 -2 -4 -1 -10 -8 2 5 1 0 3 1 0 -3 1 2 3 1 4 5 4 1 -0 -0 -1 -3 1 2 1 6 4 5 -2 4 1 8 3 -2 5 -0 3 5 0 4 10 -4
-3 -3 -0 -0 -1 -1 -2 0 -7 2 -0 2 3 2 1 1 1 3 3 2 1 -1 -1 -1 2 4 4 4 4 2 -2 1 4 3 4 -6 -3 -0 5 3 4 5 6 2 5 3 2 1 2
2 2 1 -0 -1 -0 -1 1 0 2 2 2 3 3 2 3 2 3 2 2 2 -0 0 2 3 6 7 4 5 5 3 2 -2 4 -0 3 1 -1 -0 5 1 5 3 -0 10 5 3 -4 2
3 0 -2 -4 -2 -4 1 1 -0 4 4 2 1 1 1 1 -1 -1 -1 0 2 5 2 -1 -1 -3 -2 2 1 2 2 -1 4 2 -2 0 0 -3 2 1 10 9 7 8 5 2 4 2 4
-2 -2 -2 -4 -1 -2 -0 -5 2 2 2 1 2 3 1 -0 -1 -3 -2 -0 0 0 1 2 -0 -0 -0 1 1 2 2 2 3 2 -1 2 -2 3 8 2 -2 8 -15 8 2 1 4 3 1
1 -2 -0 -3 -0 -2 -1 -1 1 1 2 1 -1 -4 -6 -3 -1 -2 -2 -5 -5 -2 -2 0 2 4 1 -0 -1 -1 -1 -0 1 4 4 4 2 -3 1 -2 -0 4 8 -6 8 5 1 5 2
-3 3 -2 -2 -4 -1 -2 -2 -2 2 -0 3 1 -1 1 -1 -4 -4 -3 -5 -5 -5 -1 1 -2 -0 2 1 2 2 -2 -2 -0 -0 0 2 1 1 0 -0 7 6 10 5 8 -0 1 -1 -2
-1 -1 -1 -1 -1 -4 -1 -2 -0 1 0 -5 -8 -5 -6 -5 -2 -2 -1 -0 -0 1 -3 -1 -2 -2 4 3 3 2 2 1 -1 0 2 -1 1 3 2 4 2 6 6 8 10 5 1 3 2
-3 -1 1 -2 -0 -1 -0 -6 -0 -2 -3 -5 -6 -1 -1 -1 -4 -3 -4 -5 -3 -1 1 -1 -1 -1 0 1 -0 -0 4 3 4 -5 2 3 -1 1 -0 0 -1 2 0 7 2 -0 2 6 4
Height
3138 3140 3142 3144 3150 3144 3142 3145 3146 3147 3149 3150 3151 3154 3157 3158 3160 3163 3162 3164 3166 3168 3170 3171 3173 3174 3175 3176 3177 3177 3177 3176 3176 3176 3176 3175 3175 3174 3173 3171 3170 3170 3170 3169 3169 3169 3170 3171 3171
3134 3137 3140 3141 3143 3140 3140 3142 3145 3146 3147 3149 3150 3153 3155 3157 3158 3160 3162 3163 3165 3167 3169 3171 3172 3173 3174 3176 3176 3177 3177 3177 3176 3176 3176 3175 3174 3173 3172 3171 3171 3171 3171 3170 3170 3170 3170 3171 3172
3132 3134 3137 3137 3136 3135 3138 3140 3143 3145 3146 3148 3150 3152 3153 3155 3157 3159 3161 3163 3165 3166 3168 3170 3172 3173 3173 3175 3176 3176 3176 3176 3177 3176 3176 3176 3175 3174 3174 3173 3172 3172 3172 3171 3171 3170 3170 3171 3172
3128 3131 3133 3130 3129 3132 3137 3140 3141 3143 3145 3146 3147 3150 3152 3153 3155 3158 3160 3162 3163 3165 3167 3169 3170 3172 3173 3174 3175 3176 3176 3176 3177 3177 3177 3176 3176 3175 3175 3174 3173 3172 3172 3171 3171 3171 3171 3172 3172
3123 3125 3126 3123 3124 3129 3134 3139 3140 3142 3144 3145 3145 3148 3150 3152 3153 3155 3157 3160 3162 3164 3165 3167 3169 3171 3171 3173 3174 3175 3176 3176 3177 3177 3177 3177 3177 3176 3175 3175 3174 3173 3172 3171 3171 3171 3171 3171 3171
3117 3120 3119 3119 3121 3126 3131 3136 3138 3140 3142 3143 3145 3146 3149 3150 3152 3153 3155 3157 3159 3162 3164 3166 3167 3169 3171 3172 3173 3174 3175 3176 3177 3177 3177 3177 3177 3177 3176 3176 3175 3174 3173 3172 3172 3172 3172 3172 3172
3110 3113 3114 3117 3119 3123 3129 3133 3134 3137 3139 3141 3142 3145 3147 3150 3151 3151 3153 3155 3157 3159 3162 3163 3165 3167 3169 3170 3172 3173 3174 3175 3176 3176 3177 3177 3177 3177 3177 3176 3175 3175 3174 3173 3173 3172 3172 3172 3172
3106 3110 3111 3113 3116 3121 3124 3129 3131 3133 3136 3138 3139 3141 3145 3148 3148 3150 3151 3153 3154 3156 3159 3161 3163 3165 3167 3169 3170 3171 3173 3174 3175 3175 3176 3176 3176 3177 3177 3176 3176 3175 3175 3174 3173 3173 3173 3172 3172
3101 3104 3103 3108 3114 3119 3120 3124 3127 3128 3132 3134 3136 3139 3142 3144 3146 3148 3150 3151 3153 3155 3157 3159 3160 3162 3165 3167 3168 3169 3170 3172 3173 3173 3174 3175 3175 3175 3175 3175 3175 3175 3175 3174 3173 3173 3173 3172 3172
3095 3095 3098 3108 3112 3115 3116 3119 3123 3125 3128 3131 3133 3135 3138 3141 3143 3145 3147 3149 3151 3153 3154 3156 3158 3160 3162 3164 3165 3167 3168 3169 3170 3171 3172 3173 3173 3173 3174 3174 3174 3173 3173 3173 3172 3172 3172 3171 3171
3089 3090 3097 3103 3108 3111 3111 3114 3118 3121 3124 3128 3130 3131 3134 3137 3139 3142 3144 3146 3148 3149 3151 3153 3155 3157 3159 3161 3162 3164 3165 3166 3167 3168 3170 3170 3171 3171 3172 3172 3172 3171 3171 3171 3170 3170 3170 3170 3169
3085 3088 3093 3102 3105 3106 3107 3109 3112 3116 3122 3124 3126 3126 3129 3132 3135 3138 3140 3143 3145 3147 3149 3150 3151 3153 3155 3157 3158 3160 3161 3162 3164 3165 3166 3167 3168 3168 3169 3169 3169 3169 3169 3169 3168 3167 3167 3167 3167
3081 3085 3090 3096 3099 3101 3102 3104 3107 3111 3116 3118 3121 3123 3124 3127 3130 3133 3135 3138 3140 3142 3145 3147 3149 3149 3151 3152 3154 3155 3157 3158 3160 3161 3162 3163 3164 3165 3165 3165 3166 3166 3166 3166 3166 3165 3164 3164 3164
3079 3083 3088 3092 3094 3096 3097 3099 3101 3106 3110 3113 3116 3119 3121 3122 3125 3127 3130 3133 3135 3137 3140 3141 3144 3145 3146 3148 3149 3150 3151 3153 3155 3156 3158 3158 3159 3160 3161 3161 3162 3162 3163 3162 3162 3162 3162 3162 3161
3077 3081 3084 3086 3089 3091 3093 3092 3092 3101 3103 3106 3111 3114 3116 3118 3120 3122 3124 3125 3128 3130 3133 3134 3136 3138 3140 3142 3143 3145 3146 3148 3149 3151 3152 3153 3154 3155 3156 3157 3158 3158 3158 3159 3159 3159 3159 3158 3158
3074 3079 3080 3082 3084 3087 3090 3083 3089 3093 3096 3100 3103 3105 3108 3112 3114 3117 3119 3120 3122 3122 3123 3126 3128 3130 3133 3135 3137 3138 3139 3141 3143 3145 3146 3147 3149 3150 3151 3152 3153 3154 3154 3155 3155 3155 3154 3154 3154
3070 3071 3075 3080 3081 3083 3084 3079 3085 3088 3090 3092 3095 3099 3100 3102 3106 3110 3113 3114 3115 3116 3116 3117 3119 3121 3125 3126 3129 3131 3132 3134 3137 3138 3140 3142 3143 3145 3146 3147 3148 3149 3150 3151 3151 3151 3150 3149 3149
3066 3070 3073 3075 3079 3078 3078 3074 3079 3083 3085 3086 3088 3091 3093 3095 3098 3102 3105 3106 3107 3108 3109 3109 3111 3112 3116 3118 3120 3122 3124 3127 3129 3132 3133 3136 3138 3139 3140 3142 3143 3145 3146 3146 3146 3146 3145 3145 3144
3067 3068 3071 3074 3076 3075 3074 3073 3075 3080 3080 3080 3082 3085 3087 3089 3092 3092 3095 3096 3097 3097 3100 3102 3103 3106 3107 3108 3111 3113 3117 3121 3122 3125 3128 3130 3131 3133 3134 3137 3138 3139 3141 3141 3140 3140 3140 3140 3139
3065 3067 3070 3073 3073 3072 3071 3068 3071 3075 3074 3076 3078 3079 3080 3080 3081 3082 3083 3084 3085 3087 3088 3091 3095 3098 3100 3101 3104 3105 3108 3110 3114 3117 3120 3122 3124 3126 3127 3130 3132 3134 3134 3135 3135 3135 3135 3135 3134
3062 3066 3070 3072 3071 3071 3068 3064 3067 3070 3069 3071 3070 3071 3072 3072 3073 3073 3073 3075 3077 3078 3081 3082 3084 3087 3090 3092 3096 3096 3098 3100 3103 3107 3112 3115 3117 3119 3120 3122 3124 3126 3127 3127 3128 3129 3129 3129 3128
3061 3065 3068 3068 3069 3070 3071 3067 3063 3065 3064 3063 3064 3066 3067 3068 3068 3068 3068 3069 3070 3072 3073 3074 3076 3078 3081 3082 3084 3086 3089 3091 3095 3099 3103 3106 3109 3111 3112 3114 3116 3117 3118 3119 3121 3121 3122 3121 3121
3061 3064 3066 3066 3068 3069 3068 3070 3059 3061 3061 3061 3061 3062 3063 3064 3065 3065 3065 3065 3064 3065 3065 3066 3068 3071 3073 3074 3075 3077 3079 3082 3084 3088 3090 3093 3099 3101 3103 3105 3107 3109 3111 3112 3113 3114 3115 3114 3114
3060 3063 3064 3065 3066 3068 3064 3066 3057 3057 3057 3058 3060 3061 3062 3062 3062 3061 3061 3062 3061 3061 3061 3061 3060 3062 3065 3066 3068 3069 3070 3072 3074 3076 3079 3083 3087 3091 3094 3097 3098 3100 3102 3103 3105 3105 3106 3106 3107
3059 3061 3064 3067 3068 3067 3064 3064 3055 3056 3056 3057 3059 3059 3059 3058 3057 3057 3057 3057 3056 3056 3056 3056 3056 3057 3057 3058 3059 3060 3060 3060 3063 3067 3069 3072 3075 3078 3083 3086 3088 3090 3093 3094 3095 3097 3097 3098 3098
3056 3060 3060 3064 3065 3064 3062 3056 3052 3054 3054 3056 3057 3057 3055 3054 3053 3053 3052 3051 3051 3051 3051 3051 3051 3051 3051 3051 3052 3052 3052 3052 3053 3055 3057 3061 3065 3068 3071 3075 3079 3081 3084 3085 3086 3087 3089 3089 3089
3054 3057 3059 3060 3062 3064 3057 3052 3052 3052 3054 3055 3055 3053 3052 3052 3049 3047 3046 3045 3044 3044 3043 3042 3042 3042 3042 3042 3043 3043 3044 3044 3044 3046 3047 3049 3053 3058 3062 3065 3068 3071 3073 3075 3077 3078 3079 3080 3080
3053 3056 3057 3058 3065 3064 3054 3050 3049 3051 3053 3054 3052 3051 3049 3047 3044 3041 3039 3036 3035 3034 3033 3033 3031 3031 3031 3033 3033 3034 3035 3034 3035 3037 3037 3039 3042 3045 3050 3054 3057 3061 3063 3065 3067 3069 3070 3071 3071
3052 3052 3054 3057 3058 3061 3059 3050 3049 3051 3053 3051 3048 3045 3042 3039 3036 3033 3029 3026 3023 3022 3021 3021 3021 3021 3021 3021 3023 3024 3024 3025 3025 3026 3027 3029 3032 3035 3038 3043 3047 3050 3053 3056 3057 3059 3060 3060 3060
3049 3052 3053 3055 3058 3059 3058 3050 3048 3050 3050 3047 3044 3041 3036 3032 3028 3025 3021 3018 3018 3014 3014 3013 3013 3011 3011 3012 3013 3014 3014 3014 3015 3016 3017 3019 3021 3025 3029 3034 3037 3040 3043 3046 3048 3050 3050 3050 3050